DELTA 1 DEB, 7043

Orbit data source: Space-Track

DELTA 1 DEB, 7043 is space debris in SSO originally from a launch on Tue, 06 Nov 1973 UTC launched from the Air Force Western Test Range (AFWTR). Debris objects in space refer to the collection of defunct objects orbiting the Earth. Examples of debris include non-operational satellites, rocket bodies, and fragments generated from explosions, collisions, or faulty payload assembly.

Loading next visibility...
DELTA 1 DEB details
Identifier
7043, 1973-086AK
Orbit
SSO
Last TLE update21 hours ago
Origin
Flag of USGSFC (US)
ManufacturerUnknown
MissionSpacecraft
Bus & MotorUnknown
MassUnknown
Launch date (UTC)
1973-11-06 (51 years ago)
Launch vehicleUnknown
Launch site
Air Force Western Test Range (AFWTR)
Object type
Payload
Rocket body
Debris
Shape & HBRUnknown
Radar Cross SectionSmall (<0.1 m²)

Expand to show TLE details & history

TLE from 21 hours ago
0 DELTA 1 DEB
1 07043U 73086AK  24360.59113902  .00000119  00000-0  63399-3 0  9997
2 07043 102.1798   7.2884 0217698 241.0502 241.3278 12.85259118395387
Epoch: 2024-12-25T14:11Z
Definitive object data (Epoch: 2024-12-25T14:11:14.411Z)
Latitude57.73005°
Longitude-100.21921°
Altitude1,413.096 km
Speed7.12 km/s
True Right ascension13h 48m 41s
True Declination57° 35' 16"
Sunlit
Object was in daylight at TLE epoch
Visualization TLE readout
Latitude-57.07505°
Longitude-138.51248°
Altitude1,174.683 km
Speed7.344 km/s
Apparent Right ascension20h 17m 55s
Apparent Declination-84° 21' 49"
Sunlit
Object is in daylight
Visualization observer readout
Local Sidereal Time10:41:50
Azimuth175.369° S
Elevation-44.389°
Doppler factor1
Orbital elements
Apogee altitude1,485.464 km
Perigee altitude1,150.381 km
Semi-major axis7,696.059 km
Eccentricity0.0217698
Inclination102.1798°
RAAN7.2884°
Arg. of periapsis241.0502°
True anomaly239.16779°
Mean anomaly241.3278°
Eccentric anomaly240.24494°
Mean motion3.2147 °/min
BSTAR0.00063399
Orbital period111.99 mins
Loading maneuver chart data...
Loading historical data...
Loading historical data...
Loading historical data...
Loading historical data...
Loading historical data...
Loading historical data...
Loading historical data...

DELTA 1 DEB Visibility forecast

Observer location: undefined°, undefined

Span
Click to sort rows by Start time (UTC) header in descending order
Start Az.
Max El. time (UTC)
Max El. Az.
Max El.
End time (UTC)
End Az.
13 mins2024-12-26 12:36:30.704Z37.399° NE2024-12-26 12:43:30.704Z102.224° ESE28.345°2024-12-26 12:49:30.704Z157.679° S
13 mins2024-12-26 14:27:30.704Z4.499° NNE2024-12-26 14:33:30.704Z292.829° NW38.53°2024-12-26 14:40:30.704Z223.051° SW
14 mins2024-12-26 23:18:30.704Z120.458° SE2024-12-26 23:24:30.704Z66.873° ENE32.43°2024-12-26 23:32:30.704Z355.908° N
14 mins2024-12-27 01:08:30.704Z189.341° SSW2024-12-27 01:14:30.704Z255.643° W37.82°2024-12-27 01:22:30.704Z331.449° NNW
|